DW4839 Weather Reports


time (UTC)temp
F
wind
direction
speed
knots
gust
knots
rain 1hr
in
rain 24hr
in
rain mn
in
humidity
%
barometer
mb
20210920063118 54 193 2.6 4.3 0.00 0.08 0.07 93 1025.3
20210920062600 54 218 1.7 4.3 0.00 0.08 0.07 93 1025.3
20210920062043 54 207 1.7 4.3 0.00 0.08 0.07 93 1025.4
20210920061618 54 202 1.7 4.3 0.00 0.08 0.07 92 1025.2
20210920061043 54 203 1.7 3.5 0.00 0.08 0.07 92 1025.2
20210920060543 54 220 0.9 2.6 0.00 0.08 0.07 92 1025.2
20210920060217 54 220 0.9 3.5 0.00 0.08 0.07 93 1025.2
20210920055544 54 220 0.9 3.5 0.00 0.08 0.07 93 1025.1
20210920055058 54 219 1.7 3.5 0.00 0.08 0.07 93 1025.1
20210920054710 54 200 0.9 2.6 0.00 0.08 0.07 93 1025.1
20210920054044 54 200 0.9 3.5 0.01 0.08 0.07 93 1025.0
20210920053545 54 198 0.9 3.5 0.01 0.08 0.07 93 1025.1
20210920053126 54 198 1.7 3.5 0.01 0.08 0.07 93 1025.0
20210920052600 54 197 1.7 2.6 0.01 0.08 0.07 93 1025.0
20210920052046 54 197 1.7 2.6 0.01 0.08 0.07 92 1025.0
20210920051559 54 197 0.9 2.6 0.01 0.08 0.07 92 1025.0
20210920051044 54 197 0.9 2.6 0.01 0.08 0.07 92 1024.9
20210920050545 54 197 0.9 2.6 0.01 0.08 0.07 92 1024.9
20210920050203 54 197 0.9 2.6 0.01 0.08 0.07 92 1024.9
20210920045544 55 194 0.9 1.7 0.01 0.08 0.07 92 1024.9
20210920045046 55 194 0.9 2.6 0.01 0.08 0.07 92 1024.7
20210920044856 55 0 0.0 2.6 0.01 0.08 0.07 92 1024.6
20210920044045 55 0 0.0 2.6 0.00 0.07 0.06 92 1024.6
20210920043547 55 204 0.0 2.6 0.00 0.07 0.06 92 1024.6
20210920043327 55 210 0.9 2.6 0.00 0.07 0.06 92 1024.5
20210920042544 55 210 0.9 2.6 0.00 0.07 0.06 92 1024.4
20210920042110 55 210 0.9 3.5 0.00 0.07 0.06 92 1024.3
20210920041612 55 211 1.7 3.5 0.00 0.07 0.06 92 1024.3
20210920041053 55 194 1.7 3.5 0.00 0.07 0.06 92 1024.2
20210920040548 55 0 0.0 5.2 0.00 0.07 0.06 92 1024.2
20210920040101 55 200 0.9 5.2 0.00 0.07 0.06 92 1024.2
20210920035545 54 227 1.7 3.5 0.00 0.08 0.06 92 1024.0
20210920035107 54 224 1.7 3.5 0.00 0.08 0.06 92 1024.0
20210920034801 54 218 0.9 4.3 0.00 0.08 0.06 92 1023.9
20210920034052 54 196 1.7 7.8 0.00 0.08 0.06 92 1023.7
20210920033546 54 184 1.7 7.8 0.00 0.08 0.06 92 1023.6
20210920033104 55 215 1.7 3.5 0.00 0.08 0.06 92 1023.5
20210920032548 55 211 1.7 3.5 0.00 0.08 0.06 92 1023.5
20210920032043 55 211 1.7 3.5 0.00 0.08 0.06 92 1023.4
20210920031636 55 190 0.9 4.3 0.00 0.08 0.06 92 1023.2
20210920031052 55 210 1.7 4.3 0.00 0.08 0.06 92 1023.1
20210920030551 55 207 1.7 3.5 0.00 0.08 0.06 92 1023.1
20210920030130 55 204 1.7 3.5 0.00 0.08 0.06 91 1023.0
20210920025542 55 187 0.9 2.6 0.00 0.08 0.06 91 1023.0
20210920025101 55 187 0.9 3.5 0.00 0.08 0.06 91 1022.9
20210920024634 55 180 0.9 3.5 0.00 0.08 0.06 91 1022.8
20210920024045 55 205 0.9 3.5 0.00 0.08 0.06 91 1022.7
20210920023554 55 202 0.9 3.5 0.00 0.08 0.06 91 1022.8
20210920023109 55 190 1.7 3.5 0.01 0.08 0.06 91 1022.8
20210920022543 55 213 0.9 3.5 0.01 0.08 0.06 91 1022.6
20210920022043 56 244 0.9 5.2 0.01 0.08 0.06 91 1022.6
20210920021639 56 213 0.9 5.2 0.01 0.08 0.06 91 1022.6
20210920021056 56 188 1.7 3.5 0.01 0.08 0.06 91 1022.5
20210920020556 56 202 1.7 4.3 0.01 0.08 0.06 90 1022.5
20210920020123 56 204 1.7 4.3 0.01 0.08 0.06 90 1022.5
20210920015550 56 204 0.9 2.6 0.01 0.09 0.06 90 1022.5
20210920015044 56 221 0.9 4.3 0.01 0.09 0.06 90 1022.4
20210920014614 55 221 0.9 4.3 0.01 0.09 0.06 90 1022.3
20210920014043 55 230 0.0 4.3 0.01 0.09 0.06 90 1022.3
20210920013551 55 228 0.9 6.1 0.01 0.09 0.06 90 1022.3
20210920013252 55 197 0.9 6.1 0.00 0.08 0.05 90 1022.2
20210920012555 55 194 1.7 4.3 0.00 0.08 0.05 90 1022.2
20210920012044 55 0 0.0 2.6 0.00 0.08 0.05 90 1022.2
20210920011611 55 0 0.9 3.5 0.00 0.08 0.05 90 1022.1
20210920011044 55 193 0.9 3.5 0.00 0.08 0.05 90 1022.0
20210920010601 55 0 0.0 2.6 0.00 0.08 0.05 90 1022.1
20210920010213 55 0 0.0 2.6 0.00 0.08 0.05 90 1022.0
20210920005545 55 246 0.0 7.0 0.00 0.09 0.05 90 1022.0
20210920005043 55 0 0.9 7.0 0.00 0.09 0.05 90 1021.9
20210920004702 56 0 0.0 4.3 0.00 0.09 0.05 89 1021.9
20210920004045 56 0 1.7 7.8 0.00 0.09 0.05 90 1021.8
20210920003547 56 225 1.7 7.8 0.00 0.09 0.05 89 1021.7
20210920003101 56 211 0.9 4.3 0.00 0.09 0.05 90 1021.7
20210920002616 56 126 0.9 5.2 0.00 0.09 0.05 89 1021.6
20210920002044 56 0 1.7 7.0 0.00 0.09 0.05 90 1021.6
20210920001649 56 271 2.6 7.0 0.00 0.09 0.05 91 1021.6
20210920001046 57 5 0.9 3.5 0.00 0.09 0.05 93 1021.5
20210920000550 57 313 0.9 3.5 0.00 0.09 0.05 92 1021.5
20210920000125 57 182 0.9 3.5 0.00 0.09 0.05 93 1021.4
20210919235543 57 0 0.0 6.1 0.00 0.09 0.05 92 1021.5
20210919235042 57 200 2.6 6.1 0.00 0.09 0.05 91 1021.4
20210919234809 57 198 1.7 6.1 0.00 0.09 0.05 91 1021.4
20210919234045 57 194 1.7 12.2 0.00 0.09 0.05 91 1021.3
20210919233546 57 182 2.6 12.2 0.00 0.09 0.05 91 1021.3
20210919233109 57 180 4.3 9.6 0.00 0.09 0.05 91 1021.2
20210919232545 57 187 3.5 7.0 0.00 0.09 0.05 92 1021.3
20210919232051 57 182 1.7 6.1 0.01 0.09 0.05 92 1021.4
20210919231702 57 209 2.6 8.7 0.01 0.09 0.05 91 1021.4
20210919231049 58 176 4.3 10.4 0.01 0.09 0.05 88 1021.2
20210919230604 58 194 3.5 10.4 0.01 0.09 0.05 86 1021.1
20210919230125 59 213 3.5 11.3 0.01 0.09 0.05 87 1021.2
20210919225551 59 210 4.3 13.9 0.01 0.11 0.05 86 1021.1
20210919225050 60 167 5.2 13.9 0.01 0.11 0.05 86 1021.0
20210919224609 60 207 4.3 11.3 0.01 0.11 0.05 86 1021.0
20210919224053 60 188 3.5 14.8 0.01 0.11 0.05 86 1021.0
20210919223603 60 184 5.2 14.8 0.01 0.11 0.05 85 1021.0
20210919223153 59 191 4.3 10.4 0.01 0.11 0.05 87 1020.8
20210919222548 59 251 3.5 9.6 0.01 0.11 0.05 89 1020.9
20210919222045 58 170 5.2 10.4 0.00 0.10 0.04 89 1020.9
20210919221657 58 184 3.5 12.2 0.00 0.10 0.04 90 1020.8
20210919221050 58 227 5.2 12.2 0.00 0.10 0.04 89 1020.8
20210919220545 58 192 3.5 13.0 0.00 0.10 0.04 90 1020.8
20210919220116 58 191 2.6 13.0 0.00 0.10 0.04 91 1020.7
20210919215545 58 212 3.5 7.8 0.00 0.11 0.04 92 1020.7
20210919215043 57 178 2.6 10.4 0.00 0.11 0.04 92 1020.8
20210919214636 57 211 4.3 10.4 0.00 0.11 0.04 91 1020.7
20210919214111 57 212 4.3 9.6 0.00 0.11 0.04 91 1020.7
20210919213544 57 190 3.5 9.6 0.00 0.11 0.04 93 1020.7
20210919213111 57 244 2.6 9.6 0.00 0.11 0.04 93 1020.7
20210919212544 56 277 1.7 6.1 0.00 0.11 0.04 93 1020.7
20210919212046 56 210 1.7 4.3 0.00 0.11 0.04 92 1020.6
20210919211705 56 196 2.6 7.0 0.00 0.11 0.04 90 1020.5
20210919211045 57 188 3.5 7.8 0.00 0.11 0.04 87 1020.6
20210919210547 59 204 2.6 7.8 0.00 0.11 0.04 81 1020.6
20210919210102 60 176 3.5 8.7 0.00 0.11 0.04 79 1020.3
20210919205545 60 181 4.3 9.6 0.00 0.13 0.04 79 1020.3
20210919205044 60 168 3.5 9.6 0.00 0.13 0.04 79 1020.3
20210919204630 61 161 3.5 9.6 0.00 0.13 0.04 76 1020.1
20210919204045 61 202 4.3 9.6 0.00 0.13 0.04 75 1020.0
20210919203545 61 226 4.3 9.6 0.00 0.13 0.04 78 1020.1
20210919203106 59 181 2.6 12.2 0.00 0.13 0.04 81 1020.2
20210919202545 59 188 3.5 12.2 0.00 0.13 0.04 80 1020.3
20210919202106 60 164 3.5 7.8 0.01 0.13 0.04 81 1020.2
20210919201945 60 194 2.6 7.0 0.01 0.13 0.04 82 1020.2
20210919201058 60 236 1.7 4.3 0.01 0.13 0.04 82 1020.2
20210919200547 60 193 1.7 7.8 0.01 0.13 0.04 83 1020.2
20210919200102 58 205 2.6 8.7 0.01 0.13 0.04 85 1020.1
20210919195545 58 194 1.7 8.7 0.01 0.16 0.04 84 1020.1
20210919195051 58 188 2.6 8.7 0.01 0.16 0.04 86 1020.0
20210919194645 57 212 3.5 7.0 0.01 0.16 0.04 86 1020.1
20210919194053 57 231 1.7 7.0 0.01 0.16 0.04 86 1020.1
20210919193545 57 198 2.6 8.7 0.01 0.16 0.04 85 1020.0
20210919193118 57 198 2.6 8.7 0.01 0.16 0.04 88 1020.0
20210919192547 57 230 2.6 7.8 0.01 0.16 0.04 87 1019.9
20210919192048 57 235 1.7 8.7 0.00 0.15 0.03 87 1019.9
20210919191704 57 175 3.5 9.6 0.00 0.15 0.03 88 1019.8
20210919191043 57 169 3.5 9.6 0.00 0.15 0.03 88 1019.8
20210919190548 57 257 3.5 9.6 0.00 0.15 0.03 89 1019.6
20210919190126 57 189 3.5 9.6 0.00 0.15 0.03 91 1019.6
20210919185543 56 221 3.5 7.0 0.00 0.17 0.03 90 1019.5
20210919185045 56 171 1.7 8.7 0.00 0.17 0.03 91 1019.5
20210919184550 55 185 3.5 8.7 0.00 0.17 0.03 91 1019.4
20210919184046 55 230 3.5 7.0 0.00 0.17 0.03 92 1019.4
20210919183552 55 250 2.6 8.7 0.00 0.17 0.03 91 1019.3
20210919183147 55 209 3.5 8.7 0.00 0.17 0.03 92 1019.3
20210919182554 56 178 2.6 7.0 0.00 0.17 0.03 92 1019.2
20210919182044 56 229 3.5 10.4 0.00 0.17 0.03 92 1019.1
20210919181750 56 209 2.6 10.4 0.00 0.17 0.03 92 1019.0
20210919181047 57 177 2.6 8.7 0.00 0.17 0.03 94 1018.9
20210919180544 55 192 2.6 7.0 0.00 0.17 0.03 94 1019.0
20210919180136 55 194 2.6 7.0 0.00 0.17 0.03 94 1019.0
20210919175559 55 229 2.6 7.0 0.00 0.21 0.03 95 1018.9
20210919175045 55 160 2.6 5.2 0.00 0.21 0.03 96 1018.8
20210919174717 54 211 2.6 7.0 0.00 0.21 0.03 95 1018.8
20210919174045 54 184 1.7 7.0 0.00 0.21 0.03 95 1018.7
20210919173546 54 281 2.6 7.8 0.00 0.21 0.03 96 1018.7
20210919173137 54 203 3.5 7.8 0.00 0.21 0.03 96 1018.6
20210919172547 54 213 2.6 5.2 0.00 0.21 0.03 96 1018.5
20210919172045 54 212 1.7 6.1 0.00 0.21 0.03 96 1018.5
20210919171616 54 196 2.6 6.1 0.00 0.21 0.03 96 1018.5
20210919171043 54 156 2.6 7.0 0.00 0.21 0.03 97 1018.3
20210919170552 53 174 2.6 7.8 0.00 0.21 0.03 97 1018.2
20210919170217 53 201 2.6 7.8 0.01 0.21 0.03 97 1018.0
20210919165549 53 232 1.7 7.8 0.01 0.25 0.03 97 1017.9
20210919165049 53 198 2.6 7.8 0.01 0.25 0.03 96 1017.8
20210919164618 53 196 2.6 6.1 0.01 0.25 0.03 96 1017.6
20210919164043 53 203 1.7 5.2 0.01 0.25 0.03 97 1017.5
20210919163606 52 149 1.7 8.7 0.01 0.25 0.03 97 1017.5
20210919163132 52 204 2.6 8.7 0.01 0.25 0.03 96 1017.2
20210919162609 52 196 3.5 7.0 0.01 0.25 0.03 96 1017.1
20210919162043 52 213 2.6 7.0 0.01 0.25 0.03 96 1017.1
20210919161657 52 207 1.7 5.2 0.01 0.25 0.03 96 1017.0
20210919161045 52 208 0.9 6.1 0.01 0.25 0.03 96 1017.0
20210919160546 52 171 2.6 6.1 0.01 0.25 0.03 96 1016.9
20210919160232 52 225 1.7 5.2 0.00 0.24 0.02 96 1016.8
20210919155544 52 210 1.7 7.8 0.00 0.29 0.02 96 1016.7
20210919155055 52 171 2.6 7.8 0.00 0.29 0.02 96 1016.6
20210919154707 51 257 2.6 6.1 0.00 0.29 0.02 96 1016.3
20210919154113 51 236 1.7 7.8 0.00 0.29 0.02 96 1016.2
20210919153543 51 227 2.6 7.8 0.00 0.29 0.02 96 1016.1
20210919153224 51 242 2.6 7.0 0.00 0.29 0.02 96 1016.1
20210919152546 51 194 1.7 5.2 0.00 0.29 0.02 96 1016.0
20210919152109 51 236 1.7 7.8 0.00 0.29 0.02 96 1016.0
20210919151705 51 192 1.7 7.8 0.00 0.29 0.02 96 1015.8
20210919151053 51 211 1.7 5.2 0.00 0.29 0.02 96 1015.8
20210919150548 51 221 1.7 5.2 0.00 0.29 0.02 96 1015.7
20210919150112 51 192 1.7 4.3 0.00 0.29 0.02 96 1015.6
20210919145614 51 189 2.6 6.1 0.00 0.37 0.02 96 1015.5
20210919145043 51 252 1.7 6.1 0.00 0.37 0.02 96 1015.5
20210919144611 51 234 1.7 5.2 0.00 0.37 0.02 96 1015.3
20210919144045 51 214 0.9 4.3 0.00 0.37 0.02 96 1015.3
20210919143605 51 219 1.7 4.3 0.00 0.37 0.02 96 1015.2
20210919143229 51 187 0.9 4.3 0.00 0.37 0.02 96 1015.0
20210919142605 51 201 1.7 5.2 0.00 0.37 0.02 96 1014.9
20210919142045 51 231 1.7 8.7 0.00 0.37 0.02 96 1014.8
20210919141743 51 205 2.6 8.7 0.00 0.37 0.02 96 1014.7
20210919141045 51 215 2.6 7.8 0.00 0.37 0.02 96 1014.6
20210919140546 51 184 3.5 7.8 0.00 0.37 0.02 96 1014.6
20210919140224 51 222 2.6 7.0 0.00 0.37 0.02 96 1014.5
20210919135553 51 177 2.6 7.8 0.00 0.45 0.02 96 1014.5
20210919135135 51 178 2.6 7.8 0.01 0.45 0.02 96 1014.5
20210919134709 51 209 2.6 10.4 0.01 0.45 0.02 96 1014.4
20210919134045 51 171 2.6 13.9 0.01 0.45 0.02 96 1014.3
20210919133546 51 186 4.3 13.9 0.01 0.45 0.02 95 1014.0
20210919133207 51 173 5.2 11.3 0.01 0.45 0.02 95 1014.0
20210919132545 51 211 2.6 8.7 0.01 0.45 0.02 95 1013.9
20210919132055 51 223 2.6 8.7 0.01 0.45 0.02 95 1013.8
20210919131616 51 180 3.5 7.8 0.01 0.45 0.02 95 1013.7
20210919131052 51 142 2.6 9.6 0.01 0.45 0.02 95 1013.6
20210919130547 51 190 4.3 9.6 0.01 0.45 0.02 95 1013.5
20210919130144 51 198 3.5 8.7 0.01 0.45 0.02 95 1013.4
20210919125544 51 194 2.6 7.8 0.01 0.54 0.02 95 1013.4
20210919125046 51 190 1.7 6.1 0.00 0.52 0.01 95 1013.4
20210919124647 51 225 1.7 5.2 0.00 0.52 0.01 95 1013.3
20210919124050 51 140 1.7 5.2 0.00 0.52 0.01 95 1013.3
20210919123545 51 193 1.7 5.2 0.00 0.52 0.01 95 1013.2
20210919123141 51 186 2.6 5.2 0.00 0.52 0.01 95 1013.1
20210919122545 51 197 0.9 5.2 0.00 0.52 0.01 95 1013.1
20210919122045 51 188 1.7 5.2 0.00 0.52 0.01 95 1013.1
20210919121730 51 202 1.7 5.2 0.00 0.52 0.01 95 1013.0
20210919121059 51 175 1.7 4.3 0.00 0.52 0.01 94 1013.0
20210919120613 51 194 1.7 7.0 0.00 0.52 0.01 94 1013.0
20210919120118 51 191 1.7 7.0 0.00 0.52 0.01 94 1012.9
20210919115556 51 184 1.7 7.0 0.00 0.67 0.01 94 1012.8
20210919115109 51 189 2.6 7.0 0.00 0.67 0.01 94 1012.8
20210919114630 50 194 0.9 3.5 0.00 0.67 0.01 94 1012.8
20210919114054 50 0 0.9 2.6 0.00 0.67 0.01 94 1012.8
20210919113546 50 0 0.0 0.9 0.00 0.67 0.01 94 1012.7
20210919113117 50 0 0.0 0.9 0.00 0.67 0.01 94 1012.6
20210919112546 50 0 0.0 1.7 0.00 0.67 0.01 93 1012.5
20210919112048 50 0 0.0 1.7 0.00 0.67 0.01 93 1012.5
20210919111724 50 0 0.0 0.9 0.00 0.67 0.01 93 1012.4
20210919111105 50 0 0.0 1.7 0.00 0.67 0.01 94 1012.4
20210919110602 50 0 0.0 1.7 0.00 0.67 0.01 93 1012.4
20210919110110 50 0 0.0 1.7 0.00 0.67 0.01 93 1012.3
20210919105548 51 5 0.0 1.7 0.00 0.81 0.01 93 1012.3
20210919105050 51 0 0.0 1.7 0.00 0.81 0.01 93 1012.3
20210919104638 51 0 0.0 1.7 0.00 0.81 0.01 93 1012.3
20210919104049 51 0 0.0 2.6 0.00 0.81 0.01 93 1012.3
20210919103608 51 15 0.9 3.5 0.00 0.81 0.01 93 1012.3
20210919103119 51 20 0.9 3.5 0.00 0.81 0.01 93 1012.3
20210919102551 51 19 0.0 4.3 0.00 0.81 0.01 92 1012.2
20210919102046 51 108 0.9 4.3 0.00 0.81 0.01 92 1012.2
20210919101626 51 36 0.9 3.5 0.00 0.81 0.01 92 1012.2
20210919101051 51 0 0.9 5.2 0.00 0.81 0.01 92 1012.2
20210919100546 51 0 1.7 5.2 0.00 0.81 0.01 92 1012.1
20210919100107 51 5 0.0 4.3 0.00 0.81 0.01 92 1012.3
20210919095608 51 13 0.9 5.2 0.01 0.92 0.01 91 1012.2
20210919095045 52 5 2.6 7.0 0.01 0.92 0.01 91 1012.2
20210919094613 52 5 2.6 7.0 0.01 0.92 0.01 91 1012.1
20210919094045 52 9 0.9 3.5 0.01 0.92 0.01 90 1012.1
20210919093614 52 0 0.9 3.5 0.01 0.92 0.01 90 1012.1
20210919093151 52 314 0.9 6.1 0.01 0.92 0.01 90 1012.1
20210919092607 52 244 1.7 10.4 0.01 0.92 0.01 89 1011.9
20210919092047 52 248 2.6 10.4 0.01 0.92 0.01 89 1011.8
20210919091715 52 211 2.6 9.6 0.01 0.92 0.01 90 1011.8
20210919091045 52 180 2.6 11.3 0.01 0.92 0.01 90 1011.7
20210919090601 52 154 3.5 13.0 0.01 0.92 0.01 90 1011.7
20210919090151 52 222 5.2 13.0 0.01 0.92 0.01 90 1011.6
20210919085545 52 206 3.5 8.7 0.00 1.02 0.00 91 1011.7
20210919085048 52 196 5.2 10.4 0.00 1.02 0.00 91 1011.6
20210919084633 52 207 5.2 10.4 0.00 1.02 0.00 91 1011.5
20210919084057 52 254 3.5 8.7 0.00 1.02 0.00 92 1011.5
20210919083609 52 214 2.6 11.3 0.00 1.02 0.00 92 1011.5
20210919083056 52 217 4.3 11.3 0.00 1.02 0.00 92 1011.4
20210919082556 53 161 3.5 10.4 0.00 1.02 0.00 92 1011.3
20210919082108 53 188 5.2 10.4 0.00 1.02 0.00 92 1011.2
20210919081609 53 177 3.5 10.4 0.00 1.02 0.00 92 1011.3
20210919081044 53 173 4.3 10.4 0.00 1.02 0.00 92 1011.2
20210919080547 53 178 4.3 11.3 0.00 1.02 0.00 92 1011.2
20210919080126 53 178 3.5 11.3 0.00 1.02 0.00 92 1011.2
20210919075547 53 173 4.3 10.4 0.00 1.09 0.00 92 1011.3
20210919075100 53 248 3.5 9.6 0.00 1.09 0.00 92 1011.0
20210919074639 53 189 4.3 13.0 0.00 1.09 0.00 93 1011.0
20210919074046 53 192 5.2 13.0 0.00 1.09 0.00 93 1010.9
20210919073546 53 185 5.2 13.0 0.00 1.09 0.00 93 1010.8
20210919073142 53 202 4.3 12.2 0.00 1.09 0.00 93 1010.8
20210919072545 53 194 5.2 13.0 0.00 1.09 0.00 93 1010.8
20210919072052 53 178 4.3 13.0 0.00 1.09 0.00 93 1010.7
20210919071643 53 178 3.5 10.4 0.00 1.09 0.00 93 1010.7
20210919071056 53 214 2.6 9.6 0.01 1.09 0.00 93 1010.6
20210919070556 54 231 4.3 10.4 0.01 1.09 0.00 93 1010.6
20210919070101 54 180 7.0 10.4 0.01 1.09 0.00 93 1010.6
20210919065545 54 190 3.5 8.7 0.01 1.24 1.09 93 1010.6
20210919065107 54 209 4.3 11.3 0.01 1.24 1.09 93 1010.6
20210919064641 54 244 4.3 15.6 0.01 1.24 1.09 94 1010.6
20210919064043 54 220 6.1 15.6 0.01 1.24 1.09 94 1010.4
20210919063547 54 144 6.1 13.9 0.01 1.24 1.09 94 1010.4